weather.gov     
National Weather Service

Terminal Aerodrome Forecast
NWS Homepage
This page is being discontinued on March 12, 2014.
The same data is available at this site. Please update your bookmarks.
Thank you, and we apologize for the inconvenience.
Please send an email to SR-SRH.Webmaster@noaa.gov with any concerns.


Current Version
Previous Version:    01  02  03  04  05  06  07  08  09  10  11  12  13  14  15  16  17  18  19  20  21  22  23  
[Printable]
670
FTUS42 KMLB 221100
TAFLEE
TAF
KLEE 221130Z 2212/2312 VRB03KT P6SM FEW020 SCT250
     FM221500 20004KT P6SM SCT035 SCT250
     FM222100 29006KT P6SM VCTS SCT045CB SCT080 BKN250
      TEMPO 2221/2223 2SM TSRA BKN025CB
     FM230100 12004KT P6SM FEW020 SCT100 OVC250=


U.S. Dept. of Commerce
NOAA National Weather Service
1325 East West Highway
Silver Spring, MD 20910
E-mail: w-nws.webmaster@noaa.gov
Page last modified: May 16, 2007
NATIONAL WEATHER SERVICE: for Safety, for Work, for Fun - FOR LIFE